2024-153A (60745 NORAD) Tracking and Keplerian Element Data

This shows tracking and keplerian element data for the satellite.

Feedback or suggestion? Click here.




ElementValue
Catalog60745
Name2024-153A
Epoch Orbit674
Epoch Day286.86163857
Epoch Year2024
RAAN44.1467
Inclination97.6192
Eccentricity0.0015936
Argument of Perigee132.79
Mean Anonmoly227.4673
Mean Motion15.11541567
Decay Rate0.0003772
L11 60745U 24153A 24286.86163857 .00037720 00000+0 22125-2 0 9995
L22 60745 97.6192 44.1467 0015936 132.7900 227.4673 15.11541567 6744



Live tracking and technical data element details for 2024-153A (NORAD 60745). 2024-153A can be tracked NOW for your location showing map with azimuth and elevation plus other details from your city location.







IsCatalogInMostPopularTable: catalog: 60745, numindb: 6
Update: records affected: 1



GetName: 60745 2024-153A

Hit Count: updated at: Wed, 04 Dec 2024 17:41:31 GMT